Regional Weather Roundup
Issued by NWS Green Bay, WI

Home | Current Version | Previous Version | Graphics & Text | Print | Product List | Glossary Off
Versions: 1 2 3 4 5 6 7 8 9 10 11 12 13 14 15 16 17 18 19 20 21 22 23 24 25 26 27 28 29 30 31 32 33 34 35 36 37 38 39 40 41 42 43 44 45 46 47 48 49 50

000
ASUS43 KGRB 281411
RWRGRB

NORTH-CENTRAL AND NORTHEAST WISCONSIN REGIONAL WEATHER ROUNDUP
NATIONAL WEATHER SERVICE GREEN BAY WI
900 AM CDT SAT MAY 28 2016

WIZ005-009-010>012-018-019-281500-
NORTH CENTRAL WISCONSIN

CITY           SKY/WX    TMP DP  RH WIND       PRES   REMARKS
IRONWOOD       CLOUDY    61  61 100 CALM      29.76R
MANITOWISH WTR NOT AVBL
ARBOR VITAE    CLOUDY    69  67  91 CALM      29.79S
EAGLE RIVER      N/A     67  65  96 CALM      29.80S FOG
LAND O LAKES   CLOUDY    67  65  96 SE5       29.82R
RHINELANDER    RAIN      68  66  93 E5        29.79S FOG
PHILLIPS       CLOUDY    66  65  96 CALM      29.77S
ANTIGO         RAIN      65  65  99 S10       29.80S
TOMAHAWK       RAIN      67  65  94 SE3       29.78S
MERRILL        LGT RAIN  68  68 100 S5        29.78S
$$

WIZ013-073-281500-
NORTHEAST WISCONSIN

CITY           SKY/WX    TMP DP  RH WIND       PRES   REMARKS
IRON MOUNTAIN  CLOUDY    65  63  93 SE6       29.81S FOG
MARINETTE      CLOUDY    64  62  93 S8        29.84R
OCONTO         CLOUDY    67  67 100 SE8       29.81S
$$

WIZ017-030-035>037-045-281500-
CENTRAL WISCONSIN

CITY           SKY/WX    TMP DP  RH WIND       PRES   REMARKS
MEDFORD        DRIZZLE   66  66 100 CALM      29.76S
WAUSAU         CLOUDY    70  65  84 S9        29.76R
MOSINEE        CLOUDY    66  66 100 S8        29.78R
MARSHFIELD     CLOUDY    69  65  86 SE8       29.74F
WISC RAPIDS    CLOUDY    68  65  90 S8        29.76S
STEVENS POINT  DRIZZLE   66  65  98 SE7       29.77S
WAUPACA        CLOUDY    70  70  99 SE8       29.78S
SHAWANO        CLOUDY    71  67  85 SE7       29.79S
CLINTONVILLE   CLOUDY    70  66  88 S12       29.78S
WAUTOMA        CLOUDY    69  66  90 S15       29.77S
$$

WIZ038-039-048-051-281500-
FOX VALLEY

CITY           SKY/WX    TMP DP  RH WIND       PRES   REMARKS
NWS GREEN BAY  CLOUDY    72  66  81 S13       29.80S
APPLETON       CLOUDY    70  66  88 S14       29.79S
OSHKOSH        CLOUDY    71  65  81 S13G22    29.79S
FOND DU LAC    CLOUDY    72  66  81 S22G29    29.80S
$$

WIZ022-050-052-281500-
EAST CENTRAL WISCONSIN

CITY           SKY/WX    TMP DP  RH WIND       PRES   REMARKS
EPHRAIM        CLOUDY    60  60  99 S9        29.85R FOG
STURGEON BAY   NOT AVBL
MANITOWOC      CLOUDY    61  59  93 S16       29.85S FOG
SHEBOYGAN      CLOUDY    67  62  84 S9        29.84S
$$

LMZ563-521-522-541>543-281500-
LAKESHORE

STATION/POSITION TIME  TEMP    WIND        PRES    VSBY  WAVE
                       AIR SEA DIR/SP/G                  HT/PER
                 (UTC) (F)     (DEG/KT/KT) (MB)    (MI)  (FT/S)
SHEBOYGAN LKSHOR 1400   54     170/ 17/ 18 1010.9R
KEWAUNEE LKSHORE 1300   52     180/  7/  9 1010.1S
ALGOMA MARINA    1302             CALM       N/A
NORTHPORT PIER   1300   57     150/ 10/ 14 1010.8R
N MID LAKE BUOY  1350   50 46  170/  6/  8 1011.4R         2/ 4
SISTER BAY LKSHO 1305   61     150/ 13/ 17   N/A
CHAMBERS ISLAND  1300   64     140/  5/ 13 1010.2S
MENOMINEE LKSHOR 1300   59     150/ 10/ 12 1008.9R
$$




USA.gov is the U.S. government's official web portal to all federal, state and local government web resources and services.